Weather History for KFVE - December, 2012

Change the Weather History Date:

Saturday, December 29, 2012

  Actual Average Record
Temperature  
Mean Temperature 16 °F 12 °F  
Max Temperature 20 °F 20 °F 41 °F (2003)
Min Temperature 11 °F 4 °F -6 °F (2014)
Degree Days  
Heating Degree Days 49    
Month to date heating degree days 1287  
Since 1 July heating degree days 3304  
Moisture  
Dew Point 11 °F    
Average Humidity 82    
Maximum Humidity 92    
Minimum Humidity 73    
Precipitation  
Precipitation T in 0.07 in 0.47 in (2005)
Month to date precipitation 2.02 2.43  
Year to date precipitation 32.18 33.49  
Sea Level Pressure  
Sea Level Pressure 29.82 in    
Wind  
Wind Speed 7 mph (NW)    
Max Wind Speed 16 mph    
Max Gust Speed 22 mph    
Visibility 10 miles    
Events Snow    
T = Trace of Precipitation, MM = Missing Value Source: NWS Daily Summary

Daily Weather History Graph

Daily Weather History Graph

Search for Another Location

Airport or City:

Trip Planner

Search our weather history database for the weather conditions in past years. The results will help you decide how hot, cold, wet, or windy it might be!

Date:

Astronomy

Dec. 29, 2012 Rise Set
Actual Time 7:20 AM EST 3:51 PM EST
Civil Twilight 6:44 AM EST 4:26 PM EST
Nautical Twilight 6:05 AM EST 5:05 PM EST
Astronomical Twilight 5:28 AM EST 5:43 PM EST
Moon 5:27 PM EST (12/29) 7:45 AM EST (12/29)
Length of Visible Light 9h 42m
Length of Day
8h 31m
Full, 98% of the Moon is Illuminated
Dec 29
Full
Jan 4
Last Quarter
Jan 11
New
Jan 18
First Quarter
Jan 26
Full

Hourly Weather History & Observations

Time (EST) Temp. Windchill Dew Point Humidity Pressure Visibility Wind Dir Wind Speed Gust Speed Precip Events Conditions
12:00 AM 17.6 °F 5.7 °F 12.2 °F 79% 29.77 in 10.0 mi WNW 10.4 mph - N/A   Overcast
12:23 AM 17.6 °F 6.4 °F 12.2 °F 79% 29.78 in 10.0 mi NW 9.2 mph - N/A   Overcast
12:30 AM 15.8 °F 4.2 °F 12.2 °F 86% 29.78 in 10.0 mi WNW 9.2 mph - N/A   Overcast
12:53 AM 16.0 °F 5.3 °F 10.9 °F 81% 29.83 in 10.0 mi West 8.1 mph - N/A   Overcast
1:08 AM 15.8 °F 4.2 °F 10.4 °F 79% 29.79 in 10.0 mi West 9.2 mph - N/A   Overcast
1:21 AM 15.8 °F 3.4 °F 10.4 °F 79% 29.79 in 10.0 mi WNW 10.4 mph - N/A   Mostly Cloudy
1:53 AM 15.1 °F 1.1 °F 10.9 °F 84% 29.85 in 10.0 mi WNW 12.7 mph - N/A   Mostly Cloudy
2:53 AM 14.0 °F -0.8 °F 10.0 °F 84% 29.86 in 10.0 mi WNW 13.8 mph 20.7 mph N/A   Clear
3:53 AM 14.0 °F 2.0 °F 10.0 °F 84% 29.86 in 10.0 mi NW 9.2 mph - N/A   Clear
4:22 AM 12.2 °F 2.9 °F 10.4 °F 92% 29.81 in 10.0 mi NW 5.8 mph - N/A   Mostly Cloudy
4:46 AM 14.0 °F 2.9 °F 8.6 °F 79% 29.81 in 10.0 mi WNW 8.1 mph - N/A   Mostly Cloudy
4:53 AM 14.0 °F 3.9 °F 10.0 °F 84% 29.86 in 10.0 mi NW 6.9 mph - N/A   Mostly Cloudy
5:53 AM 12.9 °F 0.7 °F 9.0 °F 84% 29.86 in 10.0 mi NW 9.2 mph - N/A   Mostly Cloudy
6:25 AM 12.2 °F 0.7 °F 8.6 °F 85% 29.83 in 10.0 mi NW 8.1 mph - N/A   Overcast
6:50 AM 12.2 °F 0.7 °F 8.6 °F 85% 29.83 in 10.0 mi NW 8.1 mph - N/A   Overcast
6:53 AM 12.9 °F 1.6 °F 9.0 °F 84% 29.88 in 10.0 mi NW 8.1 mph - N/A   Overcast
7:30 AM 12.2 °F 1.7 °F 8.6 °F 85% 29.83 in 10.0 mi WNW 6.9 mph - N/A   Overcast
7:53 AM 12.0 °F -1.3 °F 8.1 °F 84% 29.89 in 8.0 mi WNW 10.4 mph - 0.00 in Snow Light Snow
8:31 AM 12.2 °F -1.0 °F 8.6 °F 85% 29.86 in 7.0 mi WNW 10.4 mph - 0.00 in   Overcast
8:53 AM 12.9 °F 2.6 °F 9.0 °F 84% 29.94 in 9.0 mi West 6.9 mph - 0.00 in   Overcast
9:17 AM 14.0 °F 5.1 °F 10.4 °F 86% 29.89 in 2.0 mi WNW 5.8 mph - 0.00 in Snow Light Snow
9:40 AM 14.0 °F 2.0 °F 10.4 °F 86% 29.88 in 4.0 mi WNW 9.2 mph - 0.00 in Snow Light Snow
9:53 AM 14.0 °F 2.0 °F 9.0 °F 80% 29.94 in 9.0 mi WNW 9.2 mph - 0.00 in   Overcast
10:53 AM 17.1 °F 3.0 °F 10.0 °F 74% 29.89 in 10.0 mi NNW 13.8 mph - N/A   Mostly Cloudy
11:00 AM 17.6 °F 4.3 °F 10.4 °F 73% 29.84 in 10.0 mi NW 12.7 mph - N/A   Mostly Cloudy
11:33 AM 17.6 °F 6.4 °F 10.4 °F 73% 29.83 in 10.0 mi NNW 9.2 mph - N/A   Partly Cloudy
11:53 AM 18.0 °F 9.8 °F 10.9 °F 74% 29.87 in 10.0 mi NW 5.8 mph - N/A   Scattered Clouds
12:07 PM 17.6 °F 9.3 °F 10.4 °F 73% 29.82 in 10.0 mi NNW 5.8 mph - N/A   Mostly Cloudy
12:19 PM 17.6 °F 8.2 °F 10.4 °F 73% 29.82 in 10.0 mi NW 6.9 mph - N/A   Scattered Clouds
12:29 PM 19.4 °F 11.5 °F 12.2 °F 74% 29.81 in 10.0 mi NNW 5.8 mph - N/A   Mostly Cloudy
12:53 PM 18.0 °F 9.8 °F 10.9 °F 74% 29.86 in 10.0 mi NW 5.8 mph - N/A   Overcast
1:53 PM 18.0 °F 11.1 °F 12.0 °F 78% 29.86 in 10.0 mi NNW 4.6 mph - N/A   Overcast
2:53 PM 18.0 °F 12.7 °F 12.0 °F 78% 29.86 in 10.0 mi NNE 3.5 mph - N/A   Overcast
3:12 PM 17.6 °F - 12.2 °F 79% 29.81 in 10.0 mi Calm Calm - N/A   Overcast
3:53 PM 17.1 °F - 12.0 °F 81% 29.85 in 10.0 mi Calm Calm - N/A   Overcast
4:53 PM 17.1 °F - 12.9 °F 84% 29.85 in 10.0 mi Calm Calm - N/A   Overcast
5:53 PM 16.0 °F - 12.9 °F 88% 29.84 in 10.0 mi Calm Calm - N/A   Overcast
6:16 PM 15.8 °F - 12.2 °F 86% 29.77 in 10.0 mi Calm Calm - N/A   Scattered Clouds
6:53 PM 16.0 °F 10.4 °F 12.0 °F 84% 29.81 in 10.0 mi North 3.5 mph - N/A   Partly Cloudy
7:53 PM 15.1 °F 6.4 °F 12.0 °F 88% 29.78 in 10.0 mi NNE 5.8 mph - N/A   Mostly Cloudy
8:53 PM 15.1 °F 7.7 °F 10.9 °F 84% 29.78 in 10.0 mi NNW 4.6 mph - N/A   Overcast
9:53 PM 15.1 °F 6.4 °F 12.0 °F 88% 29.73 in 10.0 mi North 5.8 mph - N/A   Overcast
10:53 PM 15.1 °F 7.7 °F 10.9 °F 84% 29.71 in 10.0 mi North 4.6 mph - N/A   Overcast
11:19 PM 15.8 °F 6.1 °F 10.4 °F 79% 29.64 in 10.0 mi North 6.9 mph - N/A   Overcast
11:30 PM 15.8 °F 6.1 °F 10.4 °F 79% 29.63 in 10.0 mi North 6.9 mph - N/A   Overcast
11:53 PM 15.1 °F 5.2 °F 10.9 °F 84% 29.65 in 10.0 mi North 6.9 mph - N/A   Overcast